Other Public Products
Issued by NWS Charleston, SC

Home | Current Version | Previous Version | Text Only | Print | Product List | Glossary On
Versions: 1 2 3 4 5 6 7 8 9 10 11 12 13 14 15 16 17 18 19 20 21 22 23 24 25 26 27 28 29 30 31 32 33 34 35 36 37 38 39 40 41 42 43 44 45 46 47 48 49 50
215
FPUS82 KCHS 221842
OPUCHS

TEST...KCHS/KSAV Gateway Observations...TEST
National Weather Service Charleston SC
200 PM EDT FRI SEP 22 2017

NOTE: "fair" indicates few or no clouds below 12,000 feet with no
significant weather and/or obstructions to visibility.

SCZ050-WAZ558-NCZ071-TXZ119-213-PAZ071-DCZ001-FLZ074-172-MI076-
NYZ176-178-MAZ016-IL014-TNZ027-NJZ106-GAZ044-MD014-221900-

...Gateway Observations for Charleston International...

CITY           SKY/WX    TMP DP  RH WIND       PRES   REMARKS
Chas Airport   MOSUNNY   87  69  54 CALM      30.02F HX  91
6HR MIN TEMP:  71; 6HR MAX TEMP:  88;

Seattle        MOSUNNY   59  49  69 VRB3      30.07S
6HR MIN TEMP:  51; 6HR MAX TEMP:  59;

Charlotte      MOSUNNY   87  63  44 NE7G20    30.07F
6HR MIN TEMP:  70; 6HR MAX TEMP:  88;

Dallas DFW     PTSUNNY   89  71  55 S13G21    29.97F HX  95
6HR MIN TEMP:  78; 6HR MAX TEMP:  89;

Dallas Love    PTSUNNY   87  70  56 S10G20    29.98F HX  92
6HR MIN TEMP:  77; 6HR MAX TEMP:  87;

Philladelphia  CLOUDY    80  55  42 NW10      29.99F
6HR MIN TEMP:  69; 6HR MAX TEMP:  80;

Wash National  CLOUDY    83  67  58 NW10      30.03F
6HR MIN TEMP:  72; 6HR MAX TEMP:  83;

Baltimore      CLOUDY    80  67  64 NW8       30.02F
6HR MIN TEMP:  68; 6HR MAX TEMP:  80;

Miami          TSTM      77  76  96 CALM      29.89F
6HR MIN TEMP:  76; 6HR MAX TEMP:  88; 6HR PCP:  1.94;

Detroit        MOSUNNY   86  70  58 SW3       30.11F HX  90
6HR MIN TEMP:  68; 6HR MAX TEMP:  87;

Newark         PTSUNNY   84  54  35 N20       29.97F
6HR MIN TEMP:  68; 6HR MAX TEMP:  84;

Laguardia      MOSUNNY   79  56  45 N16       29.95F
6HR MIN TEMP:  68; 6HR MAX TEMP:  79;

J F K          MOSUNNY   82  56  40 N18G26    29.96F
6HR MIN TEMP:  68; 6HR MAX TEMP:  82;

Boston Logan   LGT RAIN  59  56  89 N24G36    30.01S FOG
6HR MIN TEMP:  58; 6HR MAX TEMP:  60; 6HR PCP:  0.02;

Ft. Lauderdale CLOUDY    84  78  82 NE5       29.88S HX  95
6HR MIN TEMP:  80; 6HR MAX TEMP:  87; 6HR PCP:  0.01;

Chicago O`Hare MOSUNNY   93  63  36 SW13G18   30.05F HX  94
6HR MIN TEMP:  73; 6HR MAX TEMP:  93;

Chicago Midway MOSUNNY   93  65  39 SW13      30.05F HX  95
6HR MIN TEMP:  76; 6HR MAX TEMP:  93;

Houston Bush   MOSUNNY   88  70  55 S12G18    29.97F HX  93
6HR MIN TEMP:  72; 6HR MAX TEMP:  89;

Houston Hobby  MOSUNNY   89  72  56 E10       29.96F HX  96
6HR MIN TEMP:  76; 6HR MAX TEMP:  90;

Nashville      MOSUNNY   88  63  43 VRB3      30.06F
6HR MIN TEMP:  67; 6HR MAX TEMP:  88;

Atlanta        MOSUNNY   86  66  51 NE6       30.05F
6HR MIN TEMP:  70; 6HR MAX TEMP:  86;


$$

GAZ044-118-TXZ119-213-NCZ071-DCZ001-MDZ014-506-PAZ021-071-NJZ106-
NYZ176-178-MAZ106-OHZ011-021-055-MIZ076-KYZ091-ILZ014-INZ047-
MNZ060-ONZ431-221900-

...Gateway Observations for Savannah International...

CITY           SKY/WX    TMP DP  RH WIND       PRES   REMARKS
Savannah Arpt  MOSUNNY   89  69  51 E9        30.02F HX  93
6HR MIN TEMP:  71; 6HR MAX TEMP:  90;

Atlanta        MOSUNNY   86  66  51 NE6       30.05F
6HR MIN TEMP:  70; 6HR MAX TEMP:  86;

Charlotte      MOSUNNY   87  63  44 NE7G20    30.07F
6HR MIN TEMP:  70; 6HR MAX TEMP:  88;

Dallas DFW     PTSUNNY   89  71  55 S13G21    29.97F HX  95
6HR MIN TEMP:  78; 6HR MAX TEMP:  89;

Houston Bush   MOSUNNY   88  70  55 S12G18    29.97F HX  93
6HR MIN TEMP:  72; 6HR MAX TEMP:  89;

Wash National  CLOUDY    83  67  58 NW10      30.03F
6HR MIN TEMP:  72; 6HR MAX TEMP:  83;

Wash Dulles    CLOUDY    82  62  50 N12       30.04F
6HR MIN TEMP:  68; 6HR MAX TEMP:  82;

Baltimore      CLOUDY    80  67  64 NW8       30.02F
6HR MIN TEMP:  68; 6HR MAX TEMP:  80;

Philadelphia   CLOUDY    80  55  42 NW10      29.99F
6HR MIN TEMP:  69; 6HR MAX TEMP:  80;

Newark         PTSUNNY   84  54  35 N20       29.97F
6HR MIN TEMP:  68; 6HR MAX TEMP:  84;

Laguardia      MOSUNNY   79  56  45 N16       29.95F
6HR MIN TEMP:  68; 6HR MAX TEMP:  79;

J F K          MOSUNNY   82  56  40 N18G26    29.96F
6HR MIN TEMP:  68; 6HR MAX TEMP:  82;

Boston         LGT RAIN  59  56  89 N24G36    30.01S FOG
6HR MIN TEMP:  58; 6HR MAX TEMP:  60; 6HR PCP:  0.02;

Pittsburg      PTSUNNY   85  56  37 N5        30.12F
6HR MIN TEMP:  60; 6HR MAX TEMP:  85;

Akron          CLOUDY    84  61  45 NE5       30.13F
6HR MIN TEMP:  65; 6HR MAX TEMP:  86;

Cleveland      MOSUNNY   91  63  39 N12       30.12F HX  92
6HR MIN TEMP:  64; 6HR MAX TEMP:  92;

Cincinnati     MOSUNNY   88  70  55 VRB3      30.10F HX  93
6HR MIN TEMP:  67; 6HR MAX TEMP:  88;

Columbus       SUNNY     85  65  51 NE3       30.09F
Detroit        MOSUNNY   86  70  58 SW3       30.11F HX  90
6HR MIN TEMP:  68; 6HR MAX TEMP:  87;

Chicago O`Hare MOSUNNY   93  63  36 SW13G18   30.05F HX  94
6HR MIN TEMP:  73; 6HR MAX TEMP:  93;

Minneapolis    MOSUNNY   89  73  59 S9        29.83F HX  97
6HR MIN TEMP:  74; 6HR MAX TEMP:  89;

Indianapolis   MOSUNNY   91  69  48 CALM      30.09F HX  96
6HR MIN TEMP:  71; 6HR MAX TEMP:  91;

Toronto Canada PTSUNNY   81  59  47 SE8       30.14S

$$




USA.gov is the U.S. government's official web portal to all federal, state and local government web resources and services.